Location: Gerlach
(40.6516°N, 119.3568°W)
Time: 16:52:25
(UTC-07:00)

ITAMSAT 1 - Pass Details

Date: 12 August 2024
Orbit: 782 x 795 km, 98.8° (Epoch: 14 September)

Event Time Altitude Azimuth Distance (km) Brightness Sun altitude
Exits shadow 22:32:36 14° 218° (SW) 2,056 9.7 -24.8°
Maximum altitude 22:35:51 25° 265° (W) 1,545 9.5 -25.2°
Drops below altitude 10° 22:40:09 10° 320° (NW) 2,369 11.2 -25.8°
Sets 22:42:53 0° 334° (NNW) 3,304 12.1 -26.1°
